Temperature
1 1 1 1 1 0 0 0 0 0 0 0 -0 -0 -0 -0 -1 -1 -1 -1 -1 -1 -1 -2 -2 -2 -2 -2 -2 -3 -3 -3 -3 -3 -3 -3 -3 -3 -3 -3 -3 -3 -3
1 1 0 0 0 -0 -0 -0 -0 -0 -1 -1 -1 -1 -1 -1 -1 -1 -1 -2 -2 -2 -2 -2 -2 -2 -3 -3 -3 -3 -3 -4 -4 -4 -4 -4 -4 -4 -4 -4 -3 -3 -3
0 -0 -0 -0 -0 -1 -1 -1 -1 -1 -1 -1 -2 -2 -2 -2 -2 -2 -2 -2 -2 -3 -3 -3 -3 -3 -3 -3 -3 -4 -4 -4 -4 -5 -4 -4 -4 -4 -4 -4 -4 -4 -4
-1 -1 -1 -1 -1 -1 -1 -2 -2 -2 -2 -2 -2 -2 -3 -3 -3 -3 -3 -3 -3 -3 -3 -4 -4 -4 -4 -4 -4 -4 -4 -5 -5 -5 -5 -5 -5 -5 -5 -5 -4 -4 -4
-1 -1 -1 -2 -2 -2 -2 -2 -3 -3 -3 -3 -3 -3 -3 -3 -3 -3 -4 -4 -4 -4 -4 -4 -4 -4 -4 -5 -5 -5 -5 -5 -5 -6 -6 -6 -5 -5 -5 -5 -5 -5 -5
-2 -2 -2 -2 -3 -3 -3 -3 -3 -4 -4 -4 -4 -4 -4 -4 -4 -4 -4 -5 -5 -5 -5 -5 -5 -5 -5 -5 -5 -6 -6 -6 -6 -6 -6 -6 -6 -6 -6 -6 -6 -6 -6
-3 -3 -3 -3 -3 -3 -4 -4 -4 -4 -4 -4 -4 -5 -5 -5 -5 -5 -5 -5 -5 -5 -5 -5 -5 -5 -6 -6 -6 -6 -6 -6 -6 -7 -7 -6 -7 -7 -7 -7 -7 -7 -7
-3 -4 -4 -4 -4 -4 -5 -5 -5 -5 -5 -5 -5 -5 -5 -5 -5 -6 -6 -6 -6 -6 -6 -6 -6 -6 -6 -6 -6 -6 -6 -6 -7 -7 -7 -7 -7 -7 -7 -7 -7 -7 -7
-4 -4 -5 -5 -5 -5 -5 -5 -6 -6 -6 -6 -6 -6 -6 -6 -6 -6 -7 -6 -6 -6 -7 -7 -7 -7 -7 -7 -7 -7 -7 -7 -7 -7 -7 -7 -7 -7 -8 -8 -8 -8 -8
-5 -5 -5 -5 -5 -6 -6 -6 -6 -6 -6 -6 -7 -7 -7 -7 -7 -7 -7 -7 -7 -7 -7 -7 -7 -7 -7 -8 -8 -8 -8 -8 -8 -7 -8 -8 -8 -8 -8 -8 -8 -9 -9
-6 -6 -6 -6 -6 -6 -6 -7 -7 -7 -7 -7 -7 -7 -7 -7 -8 -8 -8 -8 -8 -8 -8 -8 -8 -8 -8 -8 -8 -8 -8 -8 -8 -8 -8 -8 -8 -8 -8 -8 -9 -9 -9
-6 -6 -6 -7 -7 -7 -7 -7 -7 -8 -8 -8 -8 -8 -8 -8 -8 -8 -8 -8 -8 -8 -8 -8 -8 -8 -9 -9 -9 -9 -9 -9 -9 -9 -9 -9 -8 -8 -8 -9 -9 -9 -9
-7 -7 -7 -7 -8 -8 -8 -8 -8 -8 -8 -9 -9 -9 -9 -9 -9 -9 -9 -9 -9 -9 -9 -9 -9 -9 -9 -9 -9 -9 -9 -9 -9 -9 -9 -9 -9 -9 -9 -9 -9 -9 -9
-8 -8 -8 -8 -8 -8 -9 -9 -9 -9 -9 -9 -9 -9 -9 -9 -9 -9 -9 -9 -9 -9 -9 -9 -9 -9 -9 -9 -9 -9 -10 -10 -10 -10 -10 -10 -10 -10 -10 -10 -10 -10 -10
-8 -9 -9 -9 -9 -9 -9 -9 -10 -9 -10 -10 -10 -10 -10 -10 -10 -10 -10 -10 -10 -10 -10 -10 -10 -10 -10 -10 -10 -10 -10 -10 -10 -10 -10 -10 -10 -10 -10 -10 -11 -11 -11
-9 -9 -9 -10 -10 -10 -10 -10 -10 -10 -10 -10 -10 -10 -10 -10 -10 -10 -10 -10 -10 -10 -10 -10 -10 -10 -10 -10 -10 -10 -11 -11 -11 -11 -11 -11 -11 -11 -11 -11 -11 -11 -11
-10 -10 -10 -10 -10 -10 -10 -11 -10 -10 -11 -11 -11 -11 -11 -11 -11 -11 -11 -11 -11 -11 -11 -11 -11 -11 -11 -11 -11 -11 -11 -11 -11 -11 -11 -11 -12 -12 -12 -12 -12 -12 -12
-10 -11 -11 -11 -11 -11 -11 -11 -11 -11 -11 -11 -11 -11 -11 -11 -11 -11 -11 -11 -11 -11 -11 -12 -12 -12 -12 -12 -12 -12 -12 -12 -12 -12 -12 -12 -12 -12 -12 -12 -12 -12 -12
-11 -11 -11 -11 -11 -11 -12 -12 -12 -12 -12 -12 -12 -12 -12 -12 -12 -12 -12 -12 -12 -12 -12 -12 -12 -12 -12 -12 -12 -12 -12 -12 -12 -12 -12 -12 -13 -13 -13 -13 -13 -13 -13
-11 -11 -12 -12 -12 -12 -12 -12 -12 -12 -12 -13 -12 -12 -12 -13 -13 -12 -12 -13 -13 -13 -13 -13 -13 -13 -13 -13 -13 -13 -13 -13 -13 -13 -13 -13 -13 -13 -13 -13 -13 -13 -13
-12 -12 -12 -12 -12 -13 -13 -13 -13 -13 -13 -13 -13 -13 -13 -13 -13 -13 -13 -13 -13 -13 -13 -13 -13 -13 -13 -13 -13 -13 -13 -13 -13 -13 -13 -13 -13 -13 -13 -13 -13 -13 -13
-13 -13 -13 -13 -13 -13 -13 -13 -13 -14 -14 -14 -14 -14 -14 -14 -14 -14 -14 -14 -14 -14 -14 -14 -14 -14 -14 -14 -14 -14 -14 -14 -14 -14 -14 -14 -14 -14 -14 -14 -14 -14 -14
-13 -13 -13 -14 -14 -14 -14 -14 -14 -14 -14 -14 -14 -14 -14 -14 -14 -14 -14 -14 -14 -14 -14 -14 -14 -14 -14 -14 -14 -14 -14 -14 -14 -14 -14 -14 -14 -14 -14 -14 -14 -14 -14
-14 -14 -14 -14 -14 -14 -14 -14 -14 -14 -14 -14 -14 -14 -14 -14 -15 -15 -15 -15 -14 -14 -14 -14 -14 -14 -14 -14 -14 -14 -14 -14 -15 -15 -15 -15 -15 -15 -15 -15 -15 -15 -14
-14 -14 -14 -14 -15 -15 -15 -15 -15 -15 -15 -15 -15 -15 -15 -15 -15 -15 -15 -15 -15 -15 -15 -15 -15 -15 -15 -15 -15 -15 -15 -15 -15 -15 -15 -15 -15 -15 -15 -15 -15 -15 -15
-14 -15 -15 -15 -15 -15 -15 -15 -15 -15 -15 -15 -15 -15 -15 -15 -15 -15 -15 -15 -15 -15 -15 -15 -15 -15 -15 -15 -15 -15 -15 -15 -15 -15 -15 -15 -15 -15 -15 -15 -15 -15 -15
Wind_Speed
6 6 6 6 6 6 5 5 5 5 5 6 6 5 5 5 5 4 4 4 4 2 2 2 1 1 1 0 0 0 0 1 3 4 3 3 4 5 7 9 9 9 10
6 6 6 6 6 6 5 5 5 5 4 5 5 5 5 5 5 5 5 4 4 3 2 2 2 1 0 0 0 1 1 1 2 5 4 3 4 5 5 6 8 8 9
5 6 6 5 6 6 5 5 5 5 4 4 4 5 5 5 4 4 5 4 4 3 3 3 3 2 1 1 1 1 2 2 2 3 5 4 3 4 4 5 6 7 9
5 5 5 5 5 5 5 5 5 5 5 4 4 4 4 4 4 4 4 4 3 3 3 3 3 3 3 3 2 2 2 2 2 3 4 4 4 4 3 4 5 4 6
4 5 4 4 4 5 5 5 4 4 4 4 4 3 3 3 4 4 4 4 3 3 2 2 3 4 4 4 3 3 2 2 3 3 4 4 4 4 4 4 5 6 6
4 4 4 5 5 5 5 5 4 4 3 3 3 3 3 3 4 5 4 4 4 3 3 2 2 3 4 5 5 5 4 3 3 4 4 5 5 4 4 5 5 5 5
3 4 4 5 5 5 5 5 4 4 3 3 2 3 2 3 4 5 4 3 3 3 3 2 3 3 3 3 4 5 5 6 6 4 5 5 5 5 5 5 5 5 7
3 4 4 4 4 4 5 4 4 3 3 3 2 2 2 2 3 4 4 2 2 3 3 3 3 3 4 3 3 3 3 4 6 5 5 6 6 6 5 5 5 6 6
3 3 3 4 5 5 5 4 3 3 3 3 2 2 2 2 3 3 3 1 2 2 3 3 4 4 6 5 3 3 4 4 6 7 7 8 9 9 7 3 3 4 5
2 2 3 3 4 4 4 4 3 3 3 2 2 1 2 2 3 3 3 2 2 2 2 3 4 5 6 5 3 3 4 5 4 4 5 6 6 7 8 4 3 4 4
1 2 2 3 4 4 4 3 3 3 3 2 1 1 1 2 3 4 4 2 3 2 2 2 3 6 6 6 4 3 5 4 2 3 3 4 4 4 5 5 4 4 5
2 3 2 3 3 3 4 3 3 3 3 2 1 1 1 2 3 4 5 4 3 3 3 3 4 6 6 6 4 5 6 4 2 2 3 3 4 4 4 5 6 7 7
3 3 3 3 2 3 3 3 3 2 2 2 2 2 1 1 2 4 5 5 4 3 3 4 5 5 5 4 5 6 4 2 2 3 4 4 4 4 5 5 6 7 8
3 2 2 2 2 2 2 2 2 3 2 2 2 2 2 1 2 2 2 3 4 3 2 3 4 4 3 3 3 3 2 2 2 3 4 4 3 3 4 4 4 4 4
2 2 2 2 2 1 1 1 2 2 3 3 3 3 2 3 3 4 2 2 2 2 1 1 1 1 2 2 2 2 2 2 3 3 3 4 4 4 5 4 4 4 4
2 2 1 1 1 1 1 1 1 1 2 2 2 2 3 4 5 5 5 5 4 2 1 1 2 2 2 2 3 3 3 3 3 3 4 4 4 5 5 5 4 4 6
2 1 1 1 1 1 1 1 1 2 2 2 3 3 4 4 4 5 4 4 3 1 1 1 2 2 3 3 3 3 3 3 3 4 4 4 5 5 5 5 5 5 6
1 1 1 1 1 1 1 1 0 0 1 2 3 4 4 4 4 4 4 2 2 1 1 2 3 3 3 3 3 3 4 4 3 4 4 5 5 5 5 6 6 6 6
1 0 0 1 1 1 1 1 0 0 1 2 2 3 5 5 5 5 4 1 2 2 2 3 3 3 3 3 4 4 4 4 4 4 4 5 5 5 6 6 6 9 8
1 1 1 1 1 0 0 0 1 1 1 2 2 3 3 2 2 3 2 2 2 3 3 3 3 4 4 4 4 4 4 5 5 5 5 5 5 5 6 7 7 7 7
0 1 1 1 0 0 1 1 1 1 2 2 3 4 4 2 2 3 3 3 3 3 3 4 4 4 4 4 4 5 5 5 5 5 5 5 5 5 6 6 7 7 7
0 0 0 1 1 1 1 1 1 2 3 3 3 4 6 3 3 3 3 4 4 4 4 4 4 5 5 5 5 5 5 6 6 5 6 6 6 6 6 6 6 6 6
0 0 1 1 1 2 2 1 2 2 3 4 4 4 4 3 4 4 4 4 4 5 6 6 6 6 7 8 9 7 7 7 7 7 6 6 6 6 6 6 7 7 7
0 1 1 1 1 2 2 2 3 3 3 4 4 4 4 4 5 5 5 5 6 7 8 8 8 9 10 10 10 11 12 12 12 10 10 8 7 7 6 7 7 8 8
1 1 1 2 2 2 3 3 3 4 4 4 4 4 4 5 5 6 5 6 7 7 9 9 10 10 12 13 13 13 14 16 15 12 11 9 8 8 7 8 7 8 8
1 2 2 2 2 3 3 4 4 4 5 5 5 5 5 5 6 6 6 6 6 7 9 10 11 12 14 14 15 16 17 17 17 16 12 8 8 7 7 7 8 8 8
Wind_Direction
155 153 152 155 155 153 156 162 160 154 154 160 161 158 155 154 149 144 147 145 143 139 136 138 158 135 115 79 81 99 255 218 258 286 289 302 302 306 315 319 321 324 324
154 150 153 151 150 153 159 164 155 153 155 160 160 159 162 161 158 160 166 162 160 164 170 162 183 162 157 213 176 220 240 234 239 276 291 294 293 297 303 313 322 323 321
146 144 146 150 153 157 158 157 153 153 152 154 156 165 167 164 164 170 169 170 175 183 185 185 194 178 211 228 220 232 247 263 246 257 281 289 292 302 306 309 314 314 317
141 144 149 155 156 155 152 151 152 149 151 155 159 165 166 167 169 170 169 169 174 183 190 197 202 203 214 223 231 231 239 251 251 258 274 289 288 297 295 302 311 312 312
139 144 152 147 145 145 144 144 142 146 151 152 152 156 163 169 175 171 173 174 177 182 195 210 216 226 231 231 237 231 230 242 250 258 272 286 288 303 301 297 302 308 298
137 143 142 144 144 143 142 143 142 143 147 146 153 162 173 186 188 191 182 178 184 190 207 232 241 247 253 259 264 259 249 247 251 257 264 270 279 282 289 293 300 307 300
133 136 141 143 144 146 146 144 145 146 144 145 155 168 187 198 200 201 200 188 186 198 212 228 249 253 262 265 270 274 274 272 267 255 255 261 270 272 280 285 283 283 282
130 139 144 147 147 147 147 150 151 152 154 156 165 177 183 203 205 207 210 196 193 206 216 220 232 248 260 251 249 266 270 277 272 260 248 254 262 267 261 268 276 284 287
125 142 152 154 153 151 153 154 153 149 150 157 164 169 178 217 222 219 216 192 207 226 230 226 228 237 259 262 248 257 278 289 290 284 278 282 288 292 290 295 295 296 291
149 157 155 153 154 158 160 153 142 144 152 152 155 169 191 220 230 232 227 208 218 237 242 245 246 247 260 266 237 234 264 278 288 300 302 303 302 299 295 281 268 281 285
128 129 138 147 152 154 150 143 140 140 135 140 154 198 224 232 238 245 243 223 214 223 241 253 255 261 268 271 265 240 261 277 282 286 287 293 301 298 296 288 269 262 266
103 108 122 134 145 141 138 138 137 141 144 153 162 220 251 255 254 253 253 251 245 215 231 244 252 268 277 280 282 279 286 294 282 283 286 289 292 293 293 289 283 273 263
102 105 108 114 124 133 143 148 146 155 161 179 190 216 249 269 271 270 266 266 267 245 240 254 263 274 282 287 289 290 295 284 271 273 278 280 280 283 290 294 293 288 281
112 113 115 114 120 129 140 156 166 177 183 196 206 222 240 259 264 266 260 269 274 270 261 267 277 288 298 295 290 298 296 278 268 264 274 277 284 287 285 287 290 298 289
115 116 114 115 122 117 130 173 187 202 197 197 207 212 213 239 262 265 254 242 237 237 202 212 258 288 290 289 295 289 282 286 287 276 274 283 286 288 287 284 277 282 277
110 109 116 117 116 113 103 37 326 273 257 252 253 247 250 264 279 279 278 277 276 252 194 209 247 255 263 276 284 286 284 282 277 275 274 274 280 283 286 285 278 276 279
118 128 129 123 132 140 130 118 22 352 350 329 307 296 291 294 290 290 286 282 278 273 211 232 253 260 262 268 271 274 277 281 280 273 272 272 274 277 280 282 282 281 279
81 131 137 163 173 172 161 163 171 225 332 331 333 330 329 326 320 312 304 294 285 289 247 249 256 257 260 265 269 274 281 286 281 280 277 274 270 270 274 276 276 275 279
40 39 165 155 158 156 152 160 185 245 282 303 320 323 326 327 329 330 332 309 270 268 262 256 255 255 260 264 267 270 273 276 276 273 274 274 274 271 270 271 273 280 281
3 5 51 97 118 128 158 185 223 251 270 280 287 291 303 313 305 311 312 296 283 276 271 267 264 260 259 261 265 267 271 274 277 275 273 272 272 270 270 272 272 274 274
334 343 14 45 133 219 231 235 244 253 263 273 276 282 294 277 270 277 284 285 279 277 276 273 268 266 264 263 263 265 267 270 269 268 271 272 271 273 272 272 273 271 273
277 274 269 249 254 255 258 249 254 260 266 275 283 291 300 302 282 277 279 281 275 270 270 270 267 263 261 260 261 263 265 267 267 267 268 269 270 270 273 274 274 275 275
25 314 303 300 285 287 304 282 269 267 268 270 275 279 283 281 278 278 278 279 279 277 275 271 268 270 270 269 264 258 258 261 263 262 266 269 267 266 266 268 272 276 276
221 254 266 275 277 272 278 278 275 274 274 273 272 272 272 273 275 277 277 277 279 279 278 274 270 269 272 275 274 269 265 265 265 260 257 259 264 267 265 264 266 269 271
239 258 265 266 270 270 273 273 272 273 274 275 274 275 275 276 275 276 275 275 276 276 276 275 273 271 272 274 275 275 275 276 273 267 259 254 257 260 263 265 267 270 269
250 260 266 267 266 268 269 272 273 273 273 275 274 273 273 273 274 275 275 274 274 276 277 276 273 272 275 276 277 278 279 280 279 277 270 257 254 257 259 263 265 267 269
Height
1477 1479 1481 1483 1485 1487 1489 1491 1492 1494 1496 1498 1499 1500 1502 1503 1504 1505 1507 1508 1508 1509 1510 1510 1511 1511 1511 1511 1511 1511 1511 1511 1509 1507 1507 1506 1505 1504 1503 1502 1500 1499 1497
1475 1477 1479 1481 1483 1484 1486 1488 1489 1491 1493 1495 1496 1497 1499 1500 1501 1503 1504 1505 1506 1506 1507 1507 1507 1508 1508 1508 1508 1507 1507 1507 1506 1504 1503 1503 1502 1501 1500 1498 1497 1496 1494
1473 1474 1476 1478 1480 1481 1483 1485 1486 1488 1490 1492 1493 1495 1496 1497 1499 1500 1501 1502 1503 1503 1504 1504 1504 1504 1505 1505 1504 1504 1504 1504 1503 1502 1500 1499 1498 1498 1496 1495 1494 1492 1491
1471 1472 1473 1475 1477 1478 1480 1482 1483 1485 1487 1489 1490 1492 1493 1494 1496 1497 1498 1498 1499 1500 1500 1501 1501 1501 1501 1501 1501 1501 1500 1500 1499 1498 1497 1495 1495 1494 1492 1491 1489 1488 1487
1469 1470 1471 1473 1474 1476 1477 1479 1481 1482 1484 1485 1487 1489 1490 1491 1492 1493 1494 1495 1496 1496 1497 1497 1498 1498 1498 1498 1498 1497 1497 1496 1495 1494 1493 1492 1491 1489 1488 1487 1485 1483 1482
1466 1467 1469 1470 1472 1473 1475 1476 1478 1479 1481 1483 1484 1485 1487 1488 1489 1490 1491 1492 1492 1493 1493 1494 1494 1494 1494 1494 1494 1493 1493 1493 1492 1491 1489 1488 1487 1486 1485 1483 1481 1479 1476
1464 1465 1466 1468 1469 1471 1472 1474 1475 1476 1478 1480 1481 1482 1484 1485 1486 1487 1488 1489 1489 1489 1490 1490 1490 1490 1490 1490 1490 1489 1489 1488 1488 1487 1486 1485 1484 1483 1481 1479 1477 1475 1473
1462 1463 1464 1466 1467 1469 1470 1471 1473 1474 1475 1477 1478 1480 1481 1482 1483 1484 1484 1485 1485 1486 1486 1486 1486 1486 1486 1486 1485 1485 1484 1484 1483 1482 1482 1481 1480 1479 1477 1476 1473 1471 1469
1460 1461 1462 1464 1465 1466 1468 1469 1470 1472 1473 1474 1476 1477 1478 1478 1480 1480 1481 1481 1481 1482 1482 1482 1482 1482 1482 1482 1482 1481 1480 1479 1479 1478 1477 1476 1475 1474 1473 1471 1469 1467 1464
1458 1459 1461 1462 1463 1464 1465 1467 1468 1469 1470 1472 1473 1474 1475 1475 1476 1477 1477 1477 1478 1478 1478 1478 1479 1479 1479 1478 1478 1477 1476 1475 1474 1473 1473 1472 1471 1470 1469 1467 1465 1463 1461
1457 1458 1459 1460 1461 1462 1464 1465 1466 1467 1468 1469 1470 1471 1471 1472 1473 1473 1474 1474 1474 1474 1474 1474 1475 1475 1475 1474 1474 1473 1472 1471 1470 1469 1467 1467 1466 1465 1464 1463 1461 1460 1458
1455 1456 1457 1458 1459 1460 1461 1462 1463 1464 1465 1466 1467 1468 1469 1469 1470 1470 1471 1471 1471 1471 1470 1471 1471 1471 1471 1470 1470 1469 1468 1467 1466 1465 1463 1462 1461 1460 1459 1458 1457 1455 1454
1454 1454 1455 1456 1457 1458 1459 1460 1461 1462 1463 1463 1464 1465 1465 1466 1466 1467 1467 1467 1467 1467 1467 1467 1467 1467 1466 1466 1465 1465 1464 1463 1461 1460 1459 1457 1457 1455 1454 1453 1451 1450 1449
1452 1453 1453 1454 1455 1456 1457 1458 1459 1459 1460 1461 1462 1462 1462 1463 1463 1463 1463 1464 1464 1463 1463 1463 1463 1463 1462 1462 1461 1460 1460 1459 1457 1456 1455 1454 1452 1451 1449 1448 1446 1444 1443
1451 1451 1452 1452 1453 1454 1455 1456 1457 1458 1458 1459 1459 1460 1460 1460 1460 1461 1460 1460 1460 1460 1459 1459 1459 1459 1458 1457 1457 1456 1455 1454 1453 1452 1451 1449 1448 1446 1445 1443 1442 1440 1438
1449 1450 1450 1450 1451 1452 1453 1454 1455 1456 1456 1456 1457 1457 1457 1457 1457 1457 1457 1457 1456 1456 1456 1455 1454 1454 1453 1453 1452 1452 1451 1450 1449 1448 1446 1445 1443 1442 1440 1439 1437 1435 1433
1448 1448 1448 1449 1449 1450 1450 1451 1452 1453 1453 1454 1454 1454 1454 1454 1453 1453 1453 1452 1452 1452 1452 1451 1450 1450 1449 1448 1448 1447 1446 1445 1444 1443 1442 1440 1439 1437 1436 1434 1432 1430 1428
1447 1447 1447 1447 1448 1448 1449 1449 1450 1450 1450 1450 1451 1450 1450 1450 1450 1449 1449 1449 1448 1448 1447 1446 1446 1445 1445 1444 1443 1442 1441 1440 1440 1438 1437 1435 1434 1433 1431 1429 1427 1425 1423
1446 1446 1446 1446 1446 1446 1447 1447 1447 1447 1447 1447 1447 1447 1447 1446 1446 1446 1445 1444 1443 1443 1443 1442 1442 1441 1440 1439 1438 1438 1437 1435 1435 1434 1432 1431 1429 1428 1426 1424 1423 1421 1419
1445 1445 1444 1444 1444 1444 1444 1444 1444 1444 1444 1444 1444 1444 1443 1443 1442 1441 1441 1440 1439 1439 1438 1437 1437 1436 1435 1434 1434 1433 1432 1431 1429 1428 1427 1426 1424 1423 1421 1419 1417 1416 1414
1443 1443 1443 1443 1442 1442 1442 1442 1442 1442 1441 1441 1441 1440 1440 1439 1438 1437 1436 1436 1435 1434 1433 1432 1432 1431 1430 1429 1428 1427 1426 1425 1424 1423 1422 1420 1419 1417 1416 1414 1412 1411 1409
1442 1441 1441 1440 1440 1440 1439 1439 1439 1438 1438 1437 1437 1437 1436 1435 1434 1433 1432 1431 1430 1429 1428 1427 1426 1426 1425 1424 1423 1422 1420 1419 1418 1417 1416 1415 1413 1412 1410 1408 1407 1405 1403
1440 1439 1438 1438 1437 1437 1436 1436 1436 1435 1435 1434 1433 1433 1432 1431 1430 1429 1428 1427 1425 1424 1423 1422 1421 1420 1419 1418 1417 1416 1415 1414 1413 1412 1410 1409 1408 1406 1405 1403 1401 1399 1398
1438 1437 1436 1435 1434 1434 1433 1433 1432 1431 1431 1430 1429 1428 1428 1426 1425 1424 1423 1422 1420 1419 1418 1417 1415 1414 1413 1412 1411 1410 1409 1408 1407 1405 1404 1403 1402 1400 1399 1397 1396 1394 1393
1435 1434 1433 1432 1431 1430 1430 1429 1428 1427 1427 1426 1425 1424 1422 1421 1420 1419 1418 1416 1415 1414 1412 1411 1410 1408 1407 1406 1405 1404 1403 1402 1401 1400 1398 1397 1395 1394 1393 1392 1390 1389 1387
1432 1431 1430 1429 1428 1427 1426 1425 1424 1423 1422 1421 1420 1419 1417 1416 1414 1413 1412 1410 1409 1407 1406 1405 1403 1402 1401 1399 1398 1397 1396 1395 1394 1394 1392 1391 1389 1388 1387 1386 1384 1383 1382